Weather History for Santa Barbara, CA

Change the Weather History Date:

Tuesday, April 29, 2014

  Actual Average Record
Temperature  
Mean Temperature 70 °F 59 °F  
Max Temperature 85 °F 68 °F 85 °F (2014)
Min Temperature 54 °F 50 °F 39 °F (1948)
Degree Days  
Heating Degree Days 0 6  
Month to date heating degree days 159 223  
Since 1 July heating degree days 1560 2120  
Cooling Degree Days 5 0  
Month to date cooling degree days 6 0  
Year to date cooling degree days 11 2  
Growing Degree Days 20 (Base 50)    
Moisture  
Dew Point 39 °F    
Average Humidity 41    
Maximum Humidity 67    
Minimum Humidity 14    
Precipitation  
Precipitation 0.00 in 0.02 in 0.46 in (1983)
Month to date precipitation 0.27 0.98  
Year to date precipitation 5.20 11.62  
Since 1 July precipitation 6.56 17.33  
Sea Level Pressure  
Sea Level Pressure 30.02 in    
Wind  
Wind Speed 4 mph (West)    
Max Wind Speed 14 mph    
Max Gust Speed 17 mph    
Visibility 10 miles    
Events      
T = Trace of Precipitation, MM = Missing Value Source: NWS Daily Summary

Daily Weather History Graph

Daily Weather History Graph

Search for Another Location

Airport:

Trip Planner

Search our weather history database for the weather conditions in past years. The results will help you decide how hot, cold, wet, or windy it might be!

Date:

Astronomy

Apr. 29, 2014 Rise Set
Actual Time 6:11 AM PDT 7:42 PM PDT
Civil Twilight 5:44 AM PDT 8:09 PM PDT
Nautical Twilight 5:12 AM PDT 8:41 PM PDT
Astronomical Twilight 4:39 AM PDT 9:14 PM PDT
Moon 6:32 AM PDT (4/29) 8:26 PM PDT (4/29)
Length of Visible Light 14h 24m
Length of Day
13h 30m
New Moon, 0% of the Moon is Illuminated
Apr 29
New Moon
May 6
First Quarter
May 14
Full
May 21
Last Quarter
May 28
New

Hourly Weather History & Observations

Time (PDT) Temp. Dew Point Humidity Pressure Visibility Wind Dir Wind Speed Gust Speed Precip Events Conditions
12:53 AM 73.9 °F 25.0 °F 16% 29.99 in 10.0 mi North 6.9 mph - N/A   Clear
1:53 AM 66.0 °F 37.9 °F 36% 29.99 in 10.0 mi NE 4.6 mph - N/A   Clear
2:53 AM 64.0 °F 37.9 °F 38% 29.98 in 10.0 mi West 4.6 mph - N/A   Clear
3:53 AM 57.0 °F 39.9 °F 53% 29.99 in 10.0 mi SE 6.9 mph - N/A   Clear
4:53 AM 57.9 °F 46.0 °F 65% 30.00 in 10.0 mi Calm Calm - N/A   Clear
5:53 AM 57.0 °F 42.1 °F 57% 30.00 in 10.0 mi Calm Calm - N/A   Clear
6:53 AM 55.9 °F 43.0 °F 62% 30.03 in 10.0 mi ENE 3.5 mph - N/A   Clear
7:53 AM 64.9 °F 42.1 °F 43% 30.05 in 10.0 mi Calm Calm - N/A   Clear
8:53 AM 73.0 °F 46.9 °F 39% 30.06 in 8.0 mi Calm Calm - N/A   Clear
9:53 AM 75.0 °F 36.0 °F 24% 30.08 in 10.0 mi WSW 3.5 mph - N/A   Clear
10:53 AM 79.0 °F 32.0 °F 18% 30.07 in 10.0 mi WSW 5.8 mph - N/A   Clear
11:53 AM 80.1 °F 30.9 °F 17% 30.06 in 10.0 mi West 8.1 mph - N/A   Clear
12:53 PM 81.0 °F 33.1 °F 18% 30.06 in 10.0 mi West 5.8 mph - N/A   Clear
2:53 PM 82.0 °F 32.0 °F 16% 30.04 in 10.0 mi WSW 9.2 mph - N/A   Clear
3:53 PM 84.0 °F 30.9 °F 15% 30.01 in 10.0 mi West 9.2 mph - N/A   Clear
4:53 PM 81.0 °F 33.1 °F 18% 30.01 in 10.0 mi West 11.5 mph - N/A   Clear
5:53 PM 80.1 °F 34.0 °F 19% 30.00 in 10.0 mi West 8.1 mph - N/A   Clear
6:53 PM 73.9 °F 39.9 °F 29% 30.00 in 10.0 mi West 6.9 mph - N/A   Clear
7:53 PM 64.9 °F 50.0 °F 58% 30.00 in 10.0 mi WSW 5.8 mph - N/A   Clear
8:53 PM 62.1 °F 48.0 °F 60% 30.00 in 10.0 mi Calm Calm - N/A   Clear
9:53 PM 62.1 °F 46.9 °F 58% 30.01 in 10.0 mi NNE 3.5 mph - N/A   Clear
10:53 PM 60.1 °F 43.0 °F 53% 30.01 in 10.0 mi Calm Calm - N/A   Clear
11:53 PM 59.0 °F 43.0 °F 55% 30.03 in 10.0 mi Calm Calm - N/A   Clear